Henderson, KY

7:14 PM CDT on September 20, 2017 (GMT -0500)
Henderson City-County

Weather History for KEHR - February, 2013

Change the Weather History Date:

Friday, February 1, 2013

  Actual Average Record
Temperature  
Mean Temperature 17 °F -  
Max Temperature 24 °F 46 °F 69 °F (1967)
Min Temperature 10 °F 28 °F 1 °F (1945)
Degree Days  
Heating Degree Days 48    
Moisture  
Dew Point 2 °F    
Average Humidity 49    
Maximum Humidity 59    
Minimum Humidity 40    
Precipitation  
Precipitation 0.00 in - - ()
Sea Level Pressure  
Sea Level Pressure 30.42 in    
Wind  
Wind Speed 11 mph (West)    
Max Wind Speed 22 mph    
Max Gust Speed 28 mph    
Visibility 10 miles    
Events      
Averages and records for this station are not official NWS values.
T = Trace of Precipitation, MM = Missing Value Source: NWS Daily Summary

Daily Weather History Graph

Daily Weather History Graph

Search for Another Location

Airport or City:

Trip Planner

Search our weather history database for the weather conditions in past years. The results will help you decide how hot, cold, wet, or windy it might be!

Date:

Astronomy

Feb. 01, 2013 Rise Set
Actual Time 6:54 AM CST 5:14 PM CST
Civil Twilight 6:26 AM CST 5:42 PM CST
Nautical Twilight 5:55 AM CST 6:13 PM CST
Astronomical Twilight 5:24 AM CST 6:44 PM CST
Moon 11:13 PM CST (2/1) 9:34 AM CST (2/1)
Length of Visible Light 11h 15m
Length of Day
10h 20m
Waning Gibbous, 70% of the Moon is Illuminated
Feb 1
Waning Gibbous
Feb 3
Last Quarter
Feb 10
New
Feb 17
First Quarter
Feb 25
Full

Hourly Weather History & Observations

Time (CST) Temp. Windchill Dew Point Humidity Pressure Visibility Wind Dir Wind Speed Gust Speed Precip Events Conditions
12:15 AM 17.6 °F 2.7 °F 5.0 °F 58% 30.31 in 10.0 mi NW 16.1 mph - N/A   Overcast
12:35 AM 19.4 °F 2.8 °F 5.0 °F 54% 30.32 in 10.0 mi WNW 21.9 mph 27.6 mph N/A   Overcast
12:55 AM 17.6 °F 2.2 °F 5.0 °F 58% 30.34 in 5.0 mi NW 17.3 mph 25.3 mph N/A   Overcast
1:15 AM 17.6 °F 1.7 °F 3.2 °F 53% 30.34 in 10.0 mi NW 18.4 mph 27.6 mph N/A   Mostly Cloudy
1:35 AM 15.8 °F -0.6 °F -0.4 °F 49% 30.36 in 10.0 mi NW 18.4 mph 26.5 mph N/A   Mostly Cloudy
1:55 AM 15.8 °F 2.7 °F -2.2 °F 45% 30.37 in 10.0 mi NW 11.5 mph - N/A   Scattered Clouds
2:15 AM 15.8 °F 2.1 °F -0.4 °F 49% 30.37 in 10.0 mi NW 12.7 mph 17.3 mph N/A   Overcast
2:35 AM 15.8 °F -0.2 °F -0.4 °F 49% 30.38 in 10.0 mi NW 17.3 mph - N/A   Overcast
2:55 AM 12.2 °F -3.7 °F -2.2 °F 53% 30.39 in 10.0 mi NW 15.0 mph 18.4 mph N/A   Scattered Clouds
3:16 AM 12.2 °F -3.1 °F -4.0 °F 48% 30.39 in 10.0 mi NNW 13.8 mph - N/A   Clear
3:35 AM 12.2 °F -0.2 °F -5.8 °F 45% 30.39 in 10.0 mi NNW 9.2 mph 16.1 mph N/A   Clear
3:55 AM 12.2 °F -1.8 °F -4.0 °F 48% 30.40 in 10.0 mi NNW 11.5 mph 16.1 mph N/A   Clear
4:15 AM 12.2 °F -0.2 °F -4.0 °F 48% 30.40 in 10.0 mi NW 9.2 mph - N/A   Partly Cloudy
4:35 AM 12.2 °F -0.2 °F -4.0 °F 48% 30.40 in 10.0 mi NW 9.2 mph - N/A   Partly Cloudy
4:55 AM 12.2 °F -2.5 °F -4.0 °F 48% 30.41 in 10.0 mi NW 12.7 mph 17.3 mph N/A   Partly Cloudy
5:15 AM 12.2 °F -0.2 °F -5.8 °F 45% 30.41 in 10.0 mi NNW 9.2 mph - N/A   Partly Cloudy
5:35 AM 12.2 °F -1.0 °F -5.8 °F 45% 30.43 in 10.0 mi NW 10.4 mph - N/A   Clear
6:15 AM 10.4 °F -3.3 °F -5.8 °F 48% 30.45 in 10.0 mi NW 10.4 mph - N/A   Clear
6:35 AM 10.4 °F -4.8 °F -5.8 °F 48% 30.45 in 10.0 mi NW 12.7 mph 16.1 mph N/A   Clear
7:15 AM 10.4 °F -2.4 °F -5.8 °F 48% 30.46 in 10.0 mi NW 9.2 mph - N/A   Clear
7:35 AM 12.2 °F 4.3 °F -5.8 °F 45% 30.48 in 10.0 mi NW 4.6 mph - N/A   Clear
7:55 AM 12.2 °F -0.2 °F -4.0 °F 48% 30.48 in 10.0 mi West 9.2 mph - N/A   Clear
8:15 AM 12.2 °F 0.7 °F -2.2 °F 53% 30.49 in 10.0 mi West 8.1 mph - N/A   Clear
8:35 AM 12.2 °F -1.0 °F -2.2 °F 53% 30.50 in 10.0 mi WNW 10.4 mph - N/A   Clear
8:55 AM 14.0 °F 2.0 °F -2.2 °F 49% 30.50 in 10.0 mi WNW 9.2 mph - N/A   Clear
9:15 AM 14.0 °F 1.2 °F -2.2 °F 49% 30.51 in 10.0 mi West 10.4 mph - N/A   Clear
9:35 AM 15.8 °F 6.1 °F -0.4 °F 49% 30.51 in 10.0 mi West 6.9 mph - N/A   Clear
9:55 AM 15.8 °F 3.4 °F -0.4 °F 49% 30.53 in 10.0 mi West 10.4 mph - N/A   Clear
10:16 AM 15.8 °F 2.7 °F -0.4 °F 49% 30.53 in 10.0 mi West 11.5 mph - N/A   Clear
10:35 AM 15.8 °F 4.2 °F -0.4 °F 49% 30.54 in 10.0 mi West 9.2 mph - N/A   Clear
10:55 AM 17.6 °F 6.4 °F -0.4 °F 45% 30.53 in 10.0 mi West 9.2 mph - N/A   Clear
11:15 AM 17.6 °F 5.7 °F -0.4 °F 45% 30.52 in 10.0 mi WSW 10.4 mph - N/A   Clear
11:35 AM 17.6 °F 8.2 °F 1.4 °F 49% 30.51 in 10.0 mi West 6.9 mph - N/A   Clear
11:55 AM 19.4 °F 11.5 °F 1.4 °F 46% 30.50 in 10.0 mi West 5.8 mph - N/A   Clear
12:15 PM 19.4 °F - 1.4 °F 46% 30.49 in 10.0 mi Calm Calm - N/A   Clear
12:55 PM 21.2 °F 11.7 °F 3.2 °F 46% 30.47 in 10.0 mi SW 8.1 mph - N/A   Clear
1:15 PM 21.2 °F 12.6 °F 3.2 °F 46% 30.47 in 10.0 mi West 6.9 mph - N/A   Clear
1:35 PM 21.2 °F 13.6 °F 3.2 °F 46% 30.46 in 10.0 mi WSW 5.8 mph - N/A   Partly Cloudy
2:15 PM 21.2 °F 13.6 °F 3.2 °F 46% 30.45 in 10.0 mi SSW 5.8 mph - N/A   Clear
2:35 PM 21.2 °F 10.9 °F 3.2 °F 46% 30.45 in 10.0 mi West 9.2 mph 17.3 mph N/A   Clear
3:35 PM 23.0 °F 14.7 °F 5.0 °F 46% 30.44 in 10.0 mi West 6.9 mph - N/A   Clear
3:55 PM 23.0 °F 17.0 °F 3.2 °F 43% 30.43 in 10.0 mi WSW 4.6 mph - N/A   Clear
4:15 PM 23.0 °F - 5.0 °F 46% 30.43 in 10.0 mi Calm Calm - N/A   Clear
4:35 PM 24.8 °F - 3.2 °F 40% 30.43 in 10.0 mi Calm Calm - N/A   Clear
4:55 PM 23.0 °F - 5.0 °F 46% 30.42 in 10.0 mi Calm Calm - N/A   Clear
5:15 PM 21.2 °F - 5.0 °F 50% 30.40 in 10.0 mi Calm Calm - N/A   Clear
5:35 PM 21.2 °F 16.4 °F 3.2 °F 46% 30.39 in 10.0 mi ESE 3.5 mph - N/A   Clear
5:55 PM 21.2 °F - 3.2 °F 46% 30.40 in 10.0 mi Calm Calm - N/A   Clear
6:15 PM 19.4 °F 11.5 °F 6.8 °F 58% 30.39 in 10.0 mi SSE 5.8 mph - N/A   Clear
6:35 PM 21.2 °F - 6.8 °F 54% 30.40 in 10.0 mi Calm Calm - N/A   Clear
6:55 PM 21.2 °F - 5.0 °F 50% 30.40 in 10.0 mi Calm Calm - N/A   Clear
7:15 PM 21.2 °F - 5.0 °F 50% 30.40 in 10.0 mi Calm Calm - N/A   Clear
7:35 PM 21.2 °F 16.4 °F 6.8 °F 54% 30.38 in 10.0 mi ESE 3.5 mph - N/A   Clear
7:55 PM 21.2 °F 16.4 °F 6.8 °F 54% 30.38 in 10.0 mi SSE 3.5 mph - N/A   Partly Cloudy
8:15 PM 21.2 °F 16.4 °F 6.8 °F 54% 30.37 in 10.0 mi SE 3.5 mph - N/A   Partly Cloudy
8:35 PM 23.0 °F - 6.8 °F 50% 30.37 in 10.0 mi Calm Calm - N/A   Mostly Cloudy
8:55 PM 23.0 °F 18.4 °F 8.6 °F 54% 30.37 in 10.0 mi SSE 3.5 mph - N/A   Scattered Clouds
9:15 PM 23.0 °F 18.4 °F 8.6 °F 54% 30.37 in 10.0 mi SSE 3.5 mph - N/A   Clear
9:35 PM 23.0 °F 17.0 °F 10.4 °F 59% 30.36 in 10.0 mi South 4.6 mph - N/A   Mostly Cloudy
9:55 PM 24.8 °F 17.9 °F 8.6 °F 50% 30.35 in 10.0 mi South 5.8 mph - N/A   Overcast
10:15 PM 23.0 °F 15.8 °F 8.6 °F 54% 30.34 in 10.0 mi South 5.8 mph - N/A   Mostly Cloudy
10:55 PM 24.8 °F 17.9 °F 10.4 °F 54% 30.33 in 10.0 mi South 5.8 mph - N/A   Overcast
11:15 PM 24.8 °F 16.9 °F 10.4 °F 54% 30.32 in 10.0 mi South 6.9 mph - N/A   Overcast
11:35 PM 24.8 °F 16.9 °F 10.4 °F 54% 30.33 in 10.0 mi SSW 6.9 mph - N/A   Overcast
11:55 PM 24.8 °F 16.1 °F 10.4 °F 54% 30.33 in 10.0 mi SW 8.1 mph - N/A   Overcast